Location: Unspecified
(43.4354°N, 0.0000°E)
Time: 08:48:34
(UTC+00:00)

Courier 1B - Pass Details

Date: 23 June 2019
Orbit: 962 x 1209 km, 28.3° (Epoch: 16 August)

Event Time Altitude Azimuth Distance (km) Brightness Sun altitude
Rises 23:14:14 0° 252° (WSW) 4,031 10.7 -22.2°
Enters shadow 23:18:13 - 231° (SW) 3,301 10.0 -22.4°
Reaches altitude 10° 23:20:17 10° 216° (SW) 3,113 - -22.4°
Maximum altitude 23:21:38 11° 206° (SSW) 3,082 - -22.5°
Drops below altitude 10° 23:22:58 10° 196° (SSW) 3,125 - -22.5°
Sets 23:29:08 0° 160° (SSE) 4,099 - -22.7°
